Location: Coll
(42.4728°N, 0.7714°E)
Time: 06:38:07
(UTC+00:00)

Cosmos 292 Rocket - Pass Details

Date: 23 October 2020
Orbit: 672 x 695 km, 74.0° (Epoch: 23 November)

Event Time Altitude Azimuth Distance (km) Brightness Sun altitude
Exits shadow 04:41:29 - 337° (NNW) 2,657 6.6 -18.8°
Reaches altitude 10° 04:42:45 10° 336° (NNW) 2,159 6.1 -18.5°
Maximum altitude 04:47:36 71° 253° (WSW) 737 3.7 -17.6°
Drops below altitude 10° 04:52:25 10° 170° (S) 2,145 6.4 -16.7°
Sets 04:54:43 0° 168° (SSE) 3,057 7.3 -16.3°
